紫金山第1彗星

62P/Tsuchinshan 1 (2011)

English version
Home page
Updated on March 27, 2011

---------------------------------------------------------------------

・ プロフィール

・ 軌道要素

The following orbital elements are taken from MPC 62881:

Epoch 2011 July 18.0 TT = JDT 2455760.5
T 2011 June 30.3938 TT                                  MPC
q   1.383637             (2000.0)            P               Q
n   0.1546781      Peri.   30.2331      -0.5009430      -0.8488779
a   3.437032       Node    90.3083      +0.7564377      -0.5241483
e   0.597433       Incl.    9.7128      +0.4205450      -0.0683731
P   6.37
From 681 observations 1984-2005, mean residual 0".8.  Nongravitational
     parameters A1 = +0.55, A2 = -0.0066.

・ 星図

・ 光度変化

        m1 =  9.5 + 5 logΔ +  30.0 log r  [   ,-50]  (              〜2011年 5月11日)
        m1 = -6.2 + 5 logΔ + 120   log r  [-50,  0]  (2011年 5月11日〜2011年 6月30日)
        m1 =  6.5 + 5 logΔ +  30.0 log r  [  0,   ]  (2011年 6月30日〜               )

---------------------------------------------------------------------

軌道要素はMPCのEphemerides and Orbital Elementsに掲載されたものです。
星図はステラナビゲータ Ver.8 (アストロアーツ) で作成したものです。
光度グラフはComet for Windowsで作成したものです。

---------------------------------------------------------------------

Copyright(C) Seiichi Yoshida (comet@aerith.net). All rights reserved.